OH2FDL-2 Weather Reports


Display with metric or nautical units.
time (UTC)temp
F
wind
direction
speed
MPH
gust
MPH
rain 1hr
in
rain 24hr
in
rain mn
in
humidity
%
barometer
mb
20260502213018 44 0.0 0.0 0.00 0.00 0.00 93 1003.0
20260502211518 45 0.0 0.0 0.00 0.00 0.00 90 1003.2
20260502210017 46 0.0 0.0 0.00 0.00 0.00 88 1003.4
20260502204518 47 0.0 0.0 0.00 0.00 0.00 85 1003.6
20260502203027 48 0.0 0.0 0.00 0.00 0.00 83 1003.6
20260502201518 49 0.0 0.0 0.00 0.00 0.00 80 1003.8
20260502200023 50 0.0 0.0 0.00 0.00 0.00 77 1003.9
20260502194518 51 0.0 0.0 0.00 0.00 0.00 73 1003.9
20260502193018 52 0.0 0.0 0.00 0.00 0.00 71 1003.9
20260502190017 55 0.0 0.0 0.00 0.00 0.00 65 1004.1
20260502184518 56 0.0 0.0 0.00 0.00 0.00 62 1004.1
20260502183018 57 0.0 0.0 0.00 0.00 0.00 59 1004.1
20260502181518 58 0.0 0.0 0.00 0.00 0.00 55 1004.1
20260502163017 65 0.0 0.0 0.00 0.00 0.00 40 1003.8
20260502161523 66 0.0 0.0 0.00 0.00 0.00 39 1003.9
20260502123018 73 0.0 0.0 0.00 0.00 0.00 49 1004.5
20260502114518 69 0.0 0.0 0.00 0.00 0.00 53 1004.9
20260502113027 69 0.0 0.0 0.00 0.00 0.00 53 1005.0
20260502110024 70 0.0 0.0 0.00 0.00 0.00 52 1005.1
20260502104518 71 0.0 0.0 0.00 0.00 0.00 53 1005.2
20260502103018 71 0.0 0.0 0.00 0.00 0.00 53 1005.2
20260502101517 71 0.0 0.0 0.00 0.00 0.00 52 1005.3
20260502071518 57 0.0 0.0 0.00 0.00 0.00 10 1006.7
20260502070018 55 0.0 0.0 0.00 0.00 0.00 10 1006.7
20260502064517 54 0.0 0.0 0.00 0.00 0.00 10 1006.8
20260502063018 52 0.0 0.0 0.00 0.00 0.00 10 1006.8
20260502061521 50 0.0 0.0 0.00 0.00 0.00 10 1007.0
20260502060018 49 0.0 0.0 0.00 0.00 0.00 10 1007.1
20260502054517 46 0.0 0.0 0.00 0.00 0.00 10 1007.1
20260502053017 45 0.0 0.0 0.00 0.00 0.00 10 1007.1
20260502051517 43 0.0 0.0 0.00 0.00 0.00 10 1007.3
20260502044517 40 0.0 0.0 0.00 0.00 0.00 10 1007.4
20260502043018 40 0.0 0.0 0.00 0.00 0.00 10 1007.5
20260502040017 37 0.0 0.0 0.00 0.00 0.00 10 1007.8
20260502034518 36 0.0 0.0 0.00 0.00 0.00 10 1007.7
20260502033018 35 0.0 0.0 0.00 0.00 0.00 10 1007.6
20260502030023 34 0.0 0.0 0.00 0.00 0.00 10 1007.8
20260502024517 34 0.0 0.0 0.00 0.00 0.00 10 1008.0
20260502021517 35 0.0 0.0 0.00 0.00 0.00 10 1008.2
20260502020018 35 0.0 0.0 0.00 0.00 0.00 10 1008.6
20260502014519 35 0.0 0.0 0.00 0.00 0.00 10 1008.8
20260502013018 36 0.0 0.0 0.00 0.00 0.00 10 1008.7
20260502011523 36 0.0 0.0 0.00 0.00 0.00 10 1008.8
20260502010017 36 0.0 0.0 0.00 0.00 0.00 10 1008.8
20260502004518 37 0.0 0.0 0.00 0.00 0.00 10 1009.1
20260502003018 37 0.0 0.0 0.00 0.00 0.00 10 1009.2
20260502001518 38 0.0 0.0 0.00 0.00 0.00 10 1009.2
20260502000018 38 0.0 0.0 0.00 0.00 0.00 10 1009.5
20260501234518 39 0.0 0.0 0.00 0.00 0.00 10 1009.7
20260501231517 40 0.0 0.0 0.00 0.00 0.00 10 1009.9
20260501230018 40 0.0 0.0 0.00 0.00 0.00 10 1009.9
20260501223018 42 0.0 0.0 0.00 0.00 0.00 98 1009.9
20260501221518 42 0.0 0.0 0.00 0.00 0.00 96 1010.0